TimeEDT,TemperatureF,Dew PointF,Humidity,Sea Level PressureIn,VisibilityMPH,Wind Direction,Wind SpeedMPH,Gust SpeedMPH,PrecipitationIn,Events,Conditions,WindDirDegrees,DateUTC
12:15 AM,48.2,44.6,87,30.41,10.0,Calm,Calm,-,N/A,,Clear,0,2013-04-27 04:15:00
12:35 AM,48.2,44.6,87,30.41,10.0,Calm,Calm,-,N/A,,Clear,0,2013-04-27 04:35:00
12:55 AM,48.2,42.8,82,30.40,10.0,Calm,Calm,-,N/A,,Clear,0,2013-04-27 04:55:00
1:15 AM,46.4,42.8,87,30.40,10.0,Calm,Calm,-,N/A,,Clear,0,2013-04-27 05:15:00
1:35 AM,46.4,44.6,93,30.40,10.0,Calm,Calm,-,N/A,,Clear,0,2013-04-27 05:35:00
1:55 AM,46.4,44.6,93,30.39,10.0,Calm,Calm,-,N/A,,Clear,0,2013-04-27 05:55:00
2:15 AM,48.2,44.6,87,30.38,10.0,Calm,Calm,-,N/A,,Clear,0,2013-04-27 06:15:00
2:35 AM,48.2,44.6,87,30.38,10.0,Calm,Calm,-,N/A,,Clear,0,2013-04-27 06:35:00
2:55 AM,46.4,44.6,93,30.38,10.0,Calm,Calm,-,N/A,,Clear,0,2013-04-27 06:55:00
3:15 AM,46.4,44.6,93,30.39,10.0,Calm,Calm,-,N/A,,Clear,0,2013-04-27 07:15:00
3:35 AM,46.4,44.6,93,30.39,10.0,Calm,Calm,-,N/A,,Clear,0,2013-04-27 07:35:00
3:55 AM,44.6,44.6,100,30.39,10.0,Calm,Calm,-,N/A,,Clear,0,2013-04-27 07:55:00
4:15 AM,44.6,42.8,93,30.39,10.0,Calm,Calm,-,N/A,,Clear,0,2013-04-27 08:15:00
4:35 AM,42.8,42.8,100,30.38,10.0,Calm,Calm,-,N/A,,Clear,0,2013-04-27 08:35:00
4:55 AM,44.6,42.8,93,30.38,10.0,Calm,Calm,-,N/A,,Clear,0,2013-04-27 08:55:00
5:15 AM,44.6,42.8,93,30.38,10.0,Calm,Calm,-,N/A,,Clear,0,2013-04-27 09:15:00
5:35 AM,44.6,42.8,93,30.38,10.0,Calm,Calm,-,N/A,,Clear,0,2013-04-27 09:35:00
5:55 AM,42.8,42.8,100,30.38,10.0,Calm,Calm,-,N/A,,Clear,0,2013-04-27 09:55:00
6:15 AM,42.8,42.8,100,30.38,10.0,Calm,Calm,-,N/A,,Clear,0,2013-04-27 10:15:00
7:35 AM,44.6,44.6,100,30.41,10.0,Calm,Calm,-,N/A,,Clear,0,2013-04-27 11:35:00
7:55 AM,46.4,46.4,100,30.42,10.0,Calm,Calm,-,N/A,,Clear,0,2013-04-27 11:55:00
8:15 AM,51.8,46.4,82,30.41,10.0,NE,4.6,-,N/A,,Clear,50,2013-04-27 12:15:00
8:35 AM,53.6,46.4,77,30.42,10.0,NE,3.5,-,N/A,,Clear,40,2013-04-27 12:35:00
8:55 AM,53.6,46.4,77,30.42,10.0,NNE,3.5,-,N/A,,Clear,30,2013-04-27 12:55:00
9:15 AM,57.2,48.2,72,30.42,10.0,NE,3.5,-,N/A,,Clear,50,2013-04-27 13:15:00
9:35 AM,60.8,46.4,59,30.42,10.0,NNE,3.5,-,N/A,,Clear,30,2013-04-27 13:35:00
9:55 AM,60.8,44.6,55,30.42,10.0,Calm,Calm,-,N/A,,Clear,0,2013-04-27 13:55:00
10:15 AM,62.6,42.8,48,30.42,10.0,East,3.5,-,N/A,,Clear,90,2013-04-27 14:15:00
10:35 AM,64.4,39.2,40,30.42,10.0,Calm,Calm,-,N/A,,Clear,0,2013-04-27 14:35:00
10:55 AM,64.4,37.4,37,30.41,10.0,NE,5.8,-,N/A,,Clear,50,2013-04-27 14:55:00
11:15 AM,66.2,37.4,35,30.41,10.0,East,4.6,-,N/A,,Clear,90,2013-04-27 15:15:00
11:35 AM,66.2,37.4,35,30.41,10.0,Calm,Calm,-,N/A,,Clear,0,2013-04-27 15:35:00
11:55 AM,66.2,37.4,35,30.40,10.0,ENE,6.9,-,N/A,,Clear,70,2013-04-27 15:55:00
12:15 PM,68.0,37.4,33,30.40,10.0,NNE,4.6,-,N/A,,Clear,30,2013-04-27 16:15:00
12:35 PM,68.0,39.2,35,30.39,10.0,NNE,5.8,-,N/A,,Clear,20,2013-04-27 16:35:00
12:55 PM,68.0,39.2,35,30.38,10.0,Calm,Calm,-,N/A,,Clear,0,2013-04-27 16:55:00
1:15 PM,68.0,39.2,35,30.37,10.0,Calm,Calm,-,N/A,,Clear,0,2013-04-27 17:15:00
1:35 PM,69.8,39.2,33,30.36,10.0,Calm,Calm,-,N/A,,Clear,0,2013-04-27 17:35:00
1:55 PM,69.8,39.2,33,30.36,10.0,Calm,Calm,-,N/A,,Clear,0,2013-04-27 17:55:00
2:15 PM,69.8,41.0,35,30.35,10.0,SSW,4.6,-,N/A,,Clear,210,2013-04-27 18:15:00
2:35 PM,71.6,39.2,31,30.35,10.0,Calm,Calm,-,N/A,,Clear,0,2013-04-27 18:35:00
2:55 PM,69.8,39.2,33,30.34,10.0,SSE,3.5,-,N/A,,Clear,150,2013-04-27 18:55:00
3:15 PM,69.8,41.0,35,30.33,10.0,Calm,Calm,-,N/A,,Scattered Clouds,0,2013-04-27 19:15:00
3:35 PM,69.8,41.0,35,30.33,10.0,Calm,Calm,-,N/A,,Scattered Clouds,0,2013-04-27 19:35:00
3:55 PM,69.8,44.6,40,30.32,10.0,North,8.1,-,N/A,,Clear,10,2013-04-27 19:55:00
4:15 PM,69.8,44.6,40,30.32,10.0,North,8.1,-,N/A,,Clear,360,2013-04-27 20:15:00
4:35 PM,69.8,44.6,40,30.32,10.0,North,9.2,-,N/A,,Clear,10,2013-04-27 20:35:00
4:55 PM,69.8,42.8,38,30.32,10.0,East,9.2,-,N/A,,Clear,80,2013-04-27 20:55:00
5:15 PM,69.8,42.8,38,30.32,10.0,East,6.9,-,N/A,,Clear,100,2013-04-27 21:15:00
5:35 PM,68.0,41.0,37,30.33,10.0,ESE,9.2,-,N/A,,Clear,110,2013-04-27 21:35:00
5:55 PM,66.2,41.0,40,30.33,10.0,East,8.1,-,N/A,,Clear,100,2013-04-27 21:55:00
6:15 PM,66.2,41.0,40,30.33,10.0,ESE,8.1,-,N/A,,Clear,120,2013-04-27 22:15:00
6:35 PM,64.4,42.8,45,30.33,10.0,SE,6.9,-,N/A,,Clear,130,2013-04-27 22:35:00
6:55 PM,62.6,42.8,48,30.33,10.0,SE,5.8,-,N/A,,Clear,130,2013-04-27 22:55:00
7:15 PM,62.6,41.0,45,30.33,10.0,ESE,6.9,-,N/A,,Clear,120,2013-04-27 23:15:00
7:35 PM,60.8,42.8,52,30.33,10.0,ESE,5.8,-,N/A,,Clear,120,2013-04-27 23:35:00
7:55 PM,59.0,42.8,55,30.33,10.0,SE,5.8,-,N/A,,Clear,130,2013-04-27 23:55:00
8:15 PM,59.0,42.8,55,30.32,10.0,East,5.8,-,N/A,,Clear,100,2013-04-28 00:15:00
8:35 PM,57.2,42.8,59,30.33,10.0,Calm,Calm,-,N/A,,Clear,0,2013-04-28 00:35:00
8:55 PM,55.4,42.8,63,30.33,10.0,East,3.5,-,N/A,,Clear,90,2013-04-28 00:55:00
9:15 PM,55.4,42.8,63,30.33,10.0,East,4.6,-,N/A,,Clear,100,2013-04-28 01:15:00
9:35 PM,55.4,42.8,63,30.33,10.0,East,3.5,-,N/A,,Clear,100,2013-04-28 01:35:00
9:55 PM,53.6,42.8,67,30.34,10.0,Calm,Calm,-,N/A,,Clear,0,2013-04-28 01:55:00
10:15 PM,53.6,42.8,67,30.34,10.0,Calm,Calm,-,N/A,,Clear,0,2013-04-28 02:15:00
10:35 PM,51.8,42.8,71,30.33,10.0,Calm,Calm,-,N/A,,Clear,0,2013-04-28 02:35:00
10:55 PM,50.0,42.8,76,30.33,10.0,Calm,Calm,-,N/A,,Clear,0,2013-04-28 02:55:00
11:15 PM,50.0,42.8,76,30.33,10.0,Calm,Calm,-,N/A,,Clear,0,2013-04-28 03:15:00
11:35 PM,48.2,42.8,82,30.33,10.0,Calm,Calm,-,N/A,,Clear,0,2013-04-28 03:35:00
11:55 PM,48.2,42.8,82,30.33,10.0,Calm,Calm,-,N/A,,Clear,0,2013-04-28 03:55:00